2020 TF1
ephemeris date magn radius delta ra dec elong phase
Today5 Sep 202629.01.943 AU1.618 AU16h51m-26°47'92.5°31.2°
2020 TF1 - 2026-09-05
astro.vanbuitenen.nl


 
-1 year
-1 month
-1 day
Now
+1 day
+1 month
+1 year

The interactive orbit chart above shows the body's path through the solar system and its position at the given date. Green and blue lines are shown perpendicular to the ecliptic plane: Green if the path is above the ecliptic plane, blue if it is below. (Left-click and drag to rotate the view; Right-click and drag to move the view; Use scroll wheel to zoom in our out.)

The orbital elements of 2020 TF1 are:

            e (Eccentricity)                : 0.3991746
            a (Semimajor axis)              : 1.6501278
            i (Inclination)                 : 3.88705
            Ω (Longitude of ascending node) : 351.80216
            ω (Argument of perihelion)      : 69.87659
            M (Mean anomaly)                : 223.12030
            Epoch                           : 2026 Jun 09

            L (Longitude of perihelion)     : 61.63609
            B (Latitude of perihelion)      : 3.64943
            P (Orbital period in years)     : 2.12            
        

The light curve chart below shows the estimated development of the minor planet's magnitude.


The all-sky chart below shows the path of the minor planet over the same period as the light curve. The current position is marked yellow.





The following chart shows the path of the minor planet in the next few days. The field of view is optimized for (~10x50) binoculars and finderscopes.




Ephemerides:
Date       Time       RA (2000)    DEC (2000)    delta   radius  elong  phase   PA    magn
2026-09-05 00:00 UT   16 51 06.2   -26 47 25     1.618    1.943   92.5   31.2    97   29.0 
2026-09-05 16:32 UT   16 51 48.5   -26 46 51     1.623    1.941   92.0   31.3    97   29.0 
2026-09-06 00:00 UT   16 52 07.9   -26 46 36     1.626    1.939   91.8   31.3    97   29.0 
2026-09-07 00:00 UT   16 53 11.3   -26 45 49     1.634    1.935   91.1   31.4    97   29.0 
2026-09-08 00:00 UT   16 54 16.4   -26 45 04     1.642    1.931   90.3   31.5    96   29.0 
2026-09-09 00:00 UT   16 55 23.2   -26 44 21     1.650    1.927   89.6   31.5    96   29.1 
2026-09-10 00:00 UT   16 56 31.6   -26 43 40     1.658    1.923   88.9   31.6    96   29.1 
2026-09-11 00:00 UT   16 57 41.7   -26 43 01     1.666    1.919   88.2   31.6    96   29.1 
2026-09-12 00:00 UT   16 58 53.4   -26 42 24     1.674    1.914   87.5   31.7    96   29.1 
2026-09-13 00:00 UT   17 00 06.7   -26 41 48     1.681    1.910   86.8   31.7    96   29.1 
2026-09-14 00:00 UT   17 01 21.6   -26 41 13     1.689    1.906   86.1   31.8    96   29.1 
2026-09-15 00:00 UT   17 02 38.0   -26 40 39     1.697    1.902   85.4   31.8    96   29.1 
2026-09-16 00:00 UT   17 03 56.0   -26 40 06     1.705    1.897   84.7   31.8    96   29.1 
2026-09-17 00:00 UT   17 05 15.5   -26 39 34     1.712    1.893   84.0   31.9    96   29.1 
2026-09-18 00:00 UT   17 06 36.4   -26 39 02     1.720    1.889   83.3   31.9    96   29.1 
2026-09-19 00:00 UT   17 07 58.9   -26 38 30     1.728    1.884   82.7   31.9    96   29.1 
2026-09-20 00:00 UT   17 09 22.8   -26 37 59     1.735    1.880   82.0   31.9    96   29.1 
2026-09-21 00:00 UT   17 10 48.1   -26 37 28     1.742    1.876   81.3   32.0    95   29.1 
2026-09-22 00:00 UT   17 12 14.8   -26 36 56     1.750    1.871   80.7   32.0    95   29.1 
2026-09-23 00:00 UT   17 13 42.9   -26 36 24     1.757    1.867   80.0   32.0    95   29.1 
2026-09-24 00:00 UT   17 15 12.4   -26 35 51     1.764    1.862   79.4   32.0    95   29.1 
2026-09-25 00:00 UT   17 16 43.2   -26 35 18     1.771    1.858   78.8   32.0    95   29.1 
2026-09-26 00:00 UT   17 18 15.4   -26 34 43     1.779    1.853   78.1   32.0    95   29.1 
2026-09-27 00:00 UT   17 19 48.9   -26 34 08     1.786    1.849   77.5   32.0    95   29.1 
2026-09-28 00:00 UT   17 21 23.7   -26 33 31     1.793    1.844   76.9   32.0    95   29.2 
2026-09-29 00:00 UT   17 22 59.8   -26 32 53     1.799    1.839   76.2   31.9    95   29.2 
2026-09-30 00:00 UT   17 24 37.2   -26 32 13     1.806    1.835   75.6   31.9    94   29.2 
2026-10-01 00:00 UT   17 26 15.8   -26 31 32     1.813    1.830   75.0   31.9    94   29.2 
2026-10-02 00:00 UT   17 27 55.7   -26 30 48     1.820    1.826   74.4   31.9    94   29.2 


    Terminology:
            
    delta:  distance between minor planet and earth in AU
    radius: distance between minor planet and sun in AU
    magn:   magnitude (brightness) estimate    
    ra:     right ascension in hours (24h = 360deg)
    dec:    declination in degrees
    elong:  elongation in degrees (angle sun-earth-minor planet)    
    phase:  phase angle in degrees (angle sun-minor planet-earth)        
    AU:     Astronomical Unit (mean distance between earth and sun: 149597870.7 km
    

Orbital elements provided by the MPC (Minor Planet Center).
Calculations by a modified version of AAPlus, a C# implementation of the AA+ project by PJ Naughter from the algorithms presented in the book "Astronomical Algorithms" by Jean Meeus.
NGC2000 dso catalog and star labels from VizieR as provided by the Strasbourg astronomical Data Center.
Tycho2 catalog from the ESO archive.